Flag for Kazakhstan Weather past 2 weeks in Qyzylorda, Kazakhstan

Now
79 °F

Sunny.


Feels Like: 78 °F
Forecast: 64 / 83 °F
Wind: 6 mph from North

Location: Kzyl-Orda

Current Time: Sep 1, 2014 at 8:48:05 PM

Latest Report: Sep 1, 2014 at 8:00 PM


Visibility: 10 mi

Pressure: 29.86 "Hg

Humidity: 21%

Dew point: 36 °F

Location of QyzylordaLocation

Historic Weather in Qyzylorda — Graph

°F

Qyzylorda temperature yesterday

Maximum temperature yesterday: 95 °F (at 2:30 PM)
Minimum temperature yesterday: 57 °F (at 7:00 AM)
Average temperature yesterday: 80 °F

Past Weeks' High & Low Weather Summary

 TemperatureHumidityPressure
High104 °F (Aug 21, 3:00 PM)68% (Aug 24, 6:30 AM)30.07 "Hg (Aug 24, 6:30 AM)
Low55 °F (Aug 27, 7:00 AM)8% (Aug 22, 4:00 PM)29.62 "Hg (Aug 24, 2:00 AM)
Average82 °F23%29.87 "Hg
* Reported Aug 17 7:00 PM — Sep 1 7:30 PM, Qyzylorda, Weather by CustomWeather, © 2014

Note: Actual official high and low records may vary slightly from our data, if they occured in-between our weather recording intervals... More about our weather records

Advertising

Qyzylorda weather history for previous 24 hours

 ConditionsComfort  
Time TempWeatherWind HumidityBarometerVisibility
7:30 PM
Sep 1
82 °FSunny.8 mph16%29.86 "Hg10 mi
7:00 PM84 °FSunny.10 mph14%29.86 "Hg10 mi
6:30 PM86 °FSunny.15 mph12%29.86 "Hg10 mi
6:00 PM86 °FPassing clouds.13 mph12%29.86 "HgN/A
5:30 PM88 °FPassing clouds.10 mph12%29.86 "HgN/A
5:00 PM86 °FPassing clouds.13 mph14%29.86 "HgN/A
4:30 PM86 °FPassing clouds.15 mph14%29.86 "HgN/A
4:00 PM88 °FSunny.13 mph13%29.86 "Hg10 mi
3:30 PM86 °FPassing clouds.13 mph15%29.86 "HgN/A
3:00 PM86 °FPassing clouds.15 mph15%29.86 "HgN/A
2:30 PM86 °FSunny.15 mph17%29.86 "Hg10 mi
2:00 PM86 °FPassing clouds.13 mph18%29.86 "HgN/A
1:30 PM84 °FPassing clouds.15 mph19%29.86 "HgN/A
1:00 PM84 °FSunny.13 mph20%29.86 "Hg10 mi
12:30 PM84 °FPassing clouds.13 mph22%29.86 "HgN/A
12:00 PM82 °FPassing clouds.15 mph21%29.86 "HgN/A
11:30 AM81 °FSunny.13 mph26%29.86 "Hg10 mi
11:00 AM79 °FPassing clouds.10 mph28%29.86 "HgN/A
10:30 AM77 °FSunny.10 mph32%29.86 "Hg10 mi
10:00 AM75 °FPassing clouds.8 mph31%29.86 "HgN/A
9:30 AM72 °FSunny.8 mph33%29.86 "Hg10 mi
9:00 AM70 °FPassing clouds.8 mph35%29.86 "HgN/A
8:30 AM70 °FPassing clouds.6 mph33%29.83 "HgN/A
8:00 AM64 °FSunny.3 mph46%29.83 "Hg10 mi
7:30 AM61 °FSunny.6 mph52%29.83 "Hg10 mi
7:00 AM61 °FSunny.6 mph52%29.83 "Hg10 mi
6:00 AM70 °FClear.10 mph33%29.80 "Hg10 mi
5:00 AM70 °FClear.10 mph38%29.80 "Hg10 mi
4:00 AM70 °FClear.8 mph43%29.77 "Hg10 mi
3:00 AM70 °FPassing clouds.8 mph40%29.77 "HgN/A
2:00 AM68 °FClear.8 mph43%29.77 "Hg10 mi
1:00 AM70 °FClear.6 mph43%29.77 "Hg10 mi
12:00 AM72 °FClear.6 mph36%29.77 "Hg10 mi
11:00 PM
Aug 31
72 °FClear.6 mph36%29.77 "Hg10 mi
10:00 PM73 °FClear.6 mph33%29.80 "Hg10 mi
9:00 PM79 °FClear.6 mph32%29.77 "Hg10 mi
8:00 PM84 °FSunny.3 mph25%29.77 "Hg10 mi
Weather by CustomWeather, © 2014

See weather overviewHow to use our weather pages